Mackinac Island, MI

1:39 AM EDT on April 23, 2017 (GMT -0400)
Mackinac Island

Weather History for KMCD - October, 2011

Change the Weather History Date:

Sunday, October 9, 2011

  Actual Average Record
Temperature  
Mean Temperature 63 °F -  
Max Temperature 69 °F 55 °F 73 °F (2003)
Min Temperature 57 °F 42 °F 31 °F (1993)
Degree Days  
Heating Degree Days 2    
Growing Degree Days 13 (Base 50)    
Moisture  
Dew Point 51 °F    
Average Humidity 61    
Maximum Humidity 88    
Minimum Humidity 49    
Precipitation  
Precipitation 0.00 in - - ()
Sea Level Pressure  
Sea Level Pressure 30.29 in    
Wind  
Wind Speed 4 mph (WSW)    
Max Wind Speed 10 mph    
Max Gust Speed 17 mph    
Visibility 10 miles    
Events      
Averages and records for this station are not official NWS values.
T = Trace of Precipitation, MM = Missing Value Source: NWS Daily Summary

Daily Weather History Graph

Daily Weather History Graph

Search for Another Location

Airport or City:

Trip Planner

Search our weather history database for the weather conditions in past years. The results will help you decide how hot, cold, wet, or windy it might be!

Date:

Astronomy

Oct. 09, 2011 Rise Set
Actual Time 7:46 AM EDT 7:04 PM EDT
Civil Twilight 7:17 AM EDT 7:33 PM EDT
Nautical Twilight 6:42 AM EDT 8:08 PM EDT
Astronomical Twilight 6:07 AM EDT 8:42 PM EDT
Moon 5:43 PM EDT (10/9) 5:25 AM EDT (10/9)
Length of Visible Light 12h 16m
Length of Day
11h 17m
Waxing Gibbous, 95% of the Moon is Illuminated
Oct 9
Waxing Gibbous
Oct 11
Full
Oct 19
Last Quarter
Oct 26
New
Nov 2
First Quarter

Hourly Weather History & Observations

Time (EDT) Temp. Dew Point Humidity Pressure Visibility Wind Dir Wind Speed Gust Speed Precip Events Conditions
12:15 AM 66.2 °F 50.0 °F 56% 30.23 in 10.0 mi SW 4.6 mph - N/A   Clear
12:34 AM 66.2 °F 50.0 °F 56% 30.23 in 10.0 mi SW 4.6 mph - N/A   Clear
12:54 AM 66.2 °F 50.0 °F 56% 30.24 in 10.0 mi SW 4.6 mph - N/A   Clear
1:15 AM 66.2 °F 51.8 °F 60% 30.24 in 10.0 mi SSW 4.6 mph - N/A   Clear
1:35 AM 64.4 °F 51.8 °F 64% 30.25 in 10.0 mi SSW 4.6 mph - N/A   Clear
1:54 AM 64.4 °F 51.8 °F 64% 30.25 in 10.0 mi SSW 5.8 mph - N/A   Clear
2:15 AM 64.4 °F 51.8 °F 64% 30.26 in 10.0 mi SSW 4.6 mph - N/A   Clear
2:34 AM 64.4 °F 51.8 °F 64% 30.27 in 10.0 mi SSW 4.6 mph - N/A   Clear
2:54 AM 64.4 °F 51.8 °F 64% 30.27 in 10.0 mi SSW 3.5 mph - N/A   Clear
3:15 AM 64.4 °F 51.8 °F 64% 30.27 in 10.0 mi SW 5.8 mph - N/A   Clear
3:34 AM 64.4 °F 51.8 °F 64% 30.27 in 10.0 mi SW 5.8 mph - N/A   Clear
3:55 AM 64.4 °F 51.8 °F 64% 30.27 in 10.0 mi SW 3.5 mph - N/A   Clear
4:15 AM 64.4 °F 53.6 °F 68% 30.27 in 10.0 mi SW 3.5 mph - N/A   Clear
4:34 AM 62.6 °F 53.6 °F 72% 30.28 in 10.0 mi Calm Calm - N/A   Clear
4:55 AM 60.8 °F 51.8 °F 72% 30.28 in 10.0 mi Calm Calm - N/A   Clear
5:15 AM 59.0 °F 53.6 °F 82% 30.28 in 10.0 mi Calm Calm - N/A   Clear
5:34 AM 57.2 °F 51.8 °F 82% 30.28 in 10.0 mi Calm Calm - N/A   Clear
5:55 AM 57.2 °F 53.6 °F 88% 30.28 in 10.0 mi Calm Calm - N/A   Clear
6:15 AM 57.2 °F 53.6 °F 88% 30.28 in 10.0 mi Calm Calm - N/A   Clear
6:34 AM 60.8 °F 53.6 °F 77% 30.29 in 10.0 mi Calm Calm - N/A   Clear
7:15 AM 60.8 °F 51.8 °F 72% 30.29 in 10.0 mi Calm Calm - N/A   Clear
7:34 AM 60.8 °F 51.8 °F 72% 30.29 in 10.0 mi SW 3.5 mph - N/A   Clear
7:55 AM 62.6 °F 51.8 °F 68% 30.29 in 10.0 mi Calm Calm - N/A   Clear
8:15 AM 60.8 °F 51.8 °F 72% 30.30 in 10.0 mi Calm Calm - N/A   Clear
8:34 AM 62.6 °F 51.8 °F 68% 30.30 in 10.0 mi SW 4.6 mph - N/A   Clear
8:55 AM 62.6 °F 51.8 °F 68% 30.30 in 10.0 mi Calm Calm - N/A   Clear
9:15 AM 64.4 °F 50.0 °F 59% 30.31 in 10.0 mi Calm Calm - N/A   Clear
9:34 AM 64.4 °F 50.0 °F 59% 30.30 in 10.0 mi WSW 3.5 mph - N/A   Clear
10:15 AM 64.4 °F 50.0 °F 59% 30.31 in 10.0 mi WSW 4.6 mph - N/A   Clear
10:34 AM 64.4 °F 51.8 °F 64% 30.31 in 10.0 mi WSW 8.1 mph - N/A   Clear
10:55 AM 68.0 °F 50.0 °F 52% 30.31 in 10.0 mi West 8.1 mph - N/A   Clear
11:14 AM 68.0 °F 50.0 °F 52% 30.32 in 10.0 mi West 6.9 mph - N/A   Clear
11:34 AM 68.0 °F 50.0 °F 52% 30.32 in 10.0 mi West 6.9 mph - N/A   Clear
11:55 AM 68.0 °F 50.0 °F 52% 30.31 in 10.0 mi West 6.9 mph - N/A   Clear
12:14 PM 68.0 °F 50.0 °F 52% 30.32 in 10.0 mi West 5.8 mph - N/A   Clear
12:35 PM 68.0 °F 50.0 °F 52% 30.32 in 10.0 mi West 6.9 mph - N/A   Clear
12:55 PM 68.0 °F 51.8 °F 56% 30.32 in 10.0 mi WSW 9.2 mph - N/A   Clear
1:14 PM 68.0 °F 50.0 °F 52% 30.31 in 10.0 mi West 6.9 mph - N/A   Clear
1:35 PM 69.8 °F 50.0 °F 49% 30.31 in 7.0 mi West 8.1 mph 16.1 mph N/A   Clear
1:55 PM 69.8 °F 50.0 °F 49% 30.30 in 10.0 mi WSW 8.1 mph 16.1 mph N/A   Clear
2:14 PM 68.0 °F 50.0 °F 52% 30.30 in 10.0 mi West 5.8 mph 16.1 mph N/A   Clear
2:35 PM 69.8 °F 50.0 °F 49% 30.30 in 10.0 mi West 10.4 mph 17.3 mph N/A   Clear
2:54 PM 69.8 °F 50.0 °F 49% 30.29 in 10.0 mi West 4.6 mph - N/A   Clear
3:14 PM 69.8 °F 50.0 °F 49% 30.29 in 10.0 mi West 5.8 mph - N/A   Clear
3:35 PM 69.8 °F 50.0 °F 49% 30.28 in 10.0 mi West 8.1 mph - N/A   Clear
3:55 PM 69.8 °F 50.0 °F 49% 30.28 in 10.0 mi West 6.9 mph - N/A   Clear
4:14 PM 69.8 °F 50.0 °F 49% 30.28 in 10.0 mi West 6.9 mph - N/A   Clear
4:35 PM 69.8 °F 50.0 °F 49% 30.28 in 10.0 mi West 9.2 mph - N/A   Clear
4:54 PM 69.8 °F 50.0 °F 49% 30.27 in 10.0 mi West 6.9 mph - N/A   Clear
5:14 PM 69.8 °F 50.0 °F 49% 30.27 in 10.0 mi West 3.5 mph - N/A   Clear
5:35 PM 69.8 °F 50.0 °F 49% 30.27 in 10.0 mi West 5.8 mph - N/A   Clear
5:55 PM 68.0 °F 51.8 °F 56% 30.27 in 10.0 mi West 4.6 mph - N/A   Clear
6:15 PM 66.2 °F 51.8 °F 60% 30.27 in 10.0 mi West 3.5 mph - N/A   Clear
6:35 PM 64.4 °F 51.8 °F 64% 30.27 in 10.0 mi Calm Calm - N/A   Clear
6:54 PM 62.6 °F 51.8 °F 68% 30.27 in 10.0 mi West 3.5 mph - N/A   Clear
7:15 PM 62.6 °F 51.8 °F 68% 30.27 in 10.0 mi Calm Calm - N/A   Clear
7:54 PM 60.8 °F 51.8 °F 72% 30.27 in 10.0 mi Calm Calm - N/A   Clear
8:15 PM 60.8 °F 51.8 °F 72% 30.28 in 10.0 mi West 3.5 mph - N/A   Clear
8:35 PM 59.0 °F 51.8 °F 77% 30.28 in 10.0 mi West 3.5 mph - N/A   Clear
9:15 PM 59.0 °F 51.8 °F 77% 30.28 in 10.0 mi West 3.5 mph - N/A   Clear
9:35 PM 59.0 °F 51.8 °F 77% 30.28 in 10.0 mi Calm Calm - N/A   Clear
9:54 PM 59.0 °F 51.8 °F 77% 30.28 in 10.0 mi Calm Calm - N/A   Clear
10:15 PM 57.2 °F 51.8 °F 82% 30.28 in 10.0 mi Calm Calm - N/A   Clear
10:35 PM 57.2 °F 51.8 °F 82% 30.28 in 10.0 mi Calm Calm - N/A   Clear
11:15 PM 53.6 °F 51.8 °F 94% 30.29 in 10.0 mi Calm Calm - N/A   Clear
11:35 PM 53.6 °F 51.8 °F 94% 30.30 in 10.0 mi Calm Calm - N/A   Clear